Total_Precipitation_Accumulation
0.05 0.04 0.03 0.04 0.03 0.02 0.00 0.00 0.00 0.00 0.00 0.00 0.00 0.00 0.00 0.00 0.00 0.01 0.02 0.02 0.03 0.06 0.09 0.22 0.31 0.33 0.36 0.41 0.39 0.36 0.34 0.32 0.35 0.40 0.48 0.48 0.46 0.46 0.48 0.48 0.49 0.53 0.58 0.59 0.55 0.54 0.54 0.47 0.42
0.05 0.04 0.06 0.09 0.04 0.01 0.00 0.00 0.00 0.00 0.00 0.00 0.00 0.00 0.00 0.00 0.00 0.01 0.02 0.02 0.01 0.03 0.06 0.14 0.24 0.30 0.36 0.40 0.40 0.38 0.35 0.35 0.36 0.40 0.45 0.50 0.47 0.43 0.44 0.47 0.50 0.57 0.59 0.61 0.59 0.56 0.56 0.47 0.40
0.08 0.08 0.09 0.08 0.03 0.01 0.00 0.00 0.00 0.00 0.00 0.00 0.00 0.00 0.00 0.00 0.00 0.01 0.01 0.01 0.01 0.02 0.05 0.12 0.23 0.30 0.37 0.42 0.43 0.41 0.39 0.40 0.42 0.43 0.46 0.49 0.52 0.49 0.45 0.43 0.47 0.56 0.58 0.60 0.61 0.58 0.57 0.51 0.44
0.12 0.15 0.13 0.07 0.01 0.00 0.00 0.00 0.00 0.00 0.00 0.00 0.00 0.00 0.00 0.00 0.00 0.01 0.01 0.01 0.01 0.02 0.05 0.13 0.25 0.35 0.41 0.44 0.48 0.44 0.44 0.46 0.45 0.46 0.50 0.53 0.54 0.53 0.52 0.49 0.46 0.46 0.50 0.56 0.60 0.60 0.62 0.58 0.49
0.16 0.19 0.16 0.07 0.01 0.00 0.00 0.00 0.00 0.00 0.00 0.00 0.00 0.00 0.00 0.00 0.00 0.01 0.01 0.01 0.02 0.03 0.06 0.14 0.28 0.39 0.44 0.48 0.52 0.50 0.50 0.52 0.51 0.50 0.53 0.56 0.59 0.61 0.58 0.54 0.48 0.42 0.41 0.45 0.52 0.54 0.56 0.57 0.52
0.22 0.20 0.12 0.06 0.02 0.01 0.00 0.00 0.00 0.00 0.00 0.00 0.00 0.00 0.00 0.00 0.01 0.01 0.01 0.02 0.02 0.04 0.09 0.17 0.31 0.41 0.47 0.53 0.58 0.56 0.57 0.62 0.62 0.61 0.59 0.59 0.60 0.61 0.60 0.56 0.51 0.46 0.45 0.46 0.48 0.50 0.54 0.57 0.56
0.20 0.18 0.09 0.04 0.02 0.01 0.00 0.00 0.01 0.01 0.00 0.00 0.00 0.00 0.00 0.01 0.01 0.02 0.03 0.03 0.05 0.06 0.10 0.17 0.29 0.40 0.50 0.57 0.61 0.62 0.61 0.64 0.65 0.66 0.65 0.63 0.63 0.66 0.67 0.63 0.56 0.52 0.51 0.50 0.47 0.45 0.45 0.48 0.53
0.18 0.19 0.11 0.05 0.03 0.02 0.01 0.01 0.01 0.01 0.01 0.00 0.01 0.01 0.01 0.01 0.01 0.02 0.04 0.05 0.08 0.11 0.14 0.21 0.32 0.41 0.48 0.55 0.62 0.63 0.62 0.67 0.69 0.70 0.68 0.66 0.68 0.71 0.73 0.67 0.59 0.54 0.53 0.49 0.46 0.44 0.40 0.38 0.38
0.26 0.27 0.12 0.04 0.03 0.02 0.02 0.02 0.02 0.02 0.03 0.02 0.01 0.01 0.01 0.01 0.03 0.04 0.07 0.09 0.12 0.16 0.18 0.25 0.38 0.47 0.52 0.55 0.55 0.64 0.69 0.74 0.75 0.76 0.71 0.68 0.64 0.61 0.58 0.56 0.58 0.57 0.55 0.51 0.48 0.46 0.42 0.37 0.31
0.33 0.26 0.10 0.04 0.03 0.04 0.04 0.04 0.05 0.05 0.04 0.04 0.03 0.02 0.02 0.03 0.05 0.06 0.07 0.09 0.13 0.15 0.18 0.25 0.37 0.46 0.55 0.57 0.61 0.71 0.72 0.72 0.73 0.71 0.72 0.68 0.61 0.57 0.52 0.50 0.50 0.54 0.57 0.57 0.56 0.51 0.45 0.37 0.28
0.28 0.20 0.09 0.05 0.05 0.05 0.05 0.05 0.06 0.07 0.06 0.05 0.04 0.04 0.05 0.05 0.07 0.08 0.08 0.09 0.12 0.17 0.22 0.27 0.38 0.48 0.56 0.60 0.62 0.66 0.69 0.70 0.74 0.76 0.75 0.75 0.73 0.70 0.68 0.64 0.62 0.55 0.52 0.53 0.53 0.54 0.47 0.41 0.36
0.19 0.14 0.10 0.09 0.08 0.08 0.08 0.06 0.06 0.06 0.05 0.05 0.05 0.05 0.07 0.08 0.08 0.09 0.10 0.10 0.14 0.21 0.27 0.31 0.40 0.50 0.56 0.64 0.68 0.67 0.67 0.67 0.68 0.73 0.76 0.76 0.74 0.71 0.71 0.68 0.62 0.58 0.55 0.54 0.53 0.50 0.44 0.41 0.35
0.15 0.11 0.09 0.09 0.12 0.11 0.10 0.07 0.06 0.05 0.03 0.03 0.04 0.05 0.06 0.09 0.10 0.12 0.14 0.15 0.18 0.24 0.29 0.35 0.44 0.50 0.56 0.65 0.72 0.74 0.70 0.65 0.63 0.66 0.71 0.72 0.71 0.68 0.65 0.62 0.58 0.55 0.52 0.50 0.45 0.41 0.36 0.33 0.33
0.14 0.11 0.09 0.09 0.12 0.12 0.11 0.08 0.06 0.03 0.02 0.03 0.03 0.04 0.05 0.07 0.10 0.12 0.17 0.19 0.19 0.22 0.28 0.35 0.44 0.53 0.60 0.64 0.66 0.70 0.73 0.70 0.67 0.64 0.61 0.64 0.66 0.66 0.67 0.65 0.63 0.58 0.52 0.50 0.48 0.43 0.37 0.32 0.30
0.15 0.17 0.14 0.09 0.10 0.12 0.15 0.12 0.04 0.01 0.02 0.04 0.04 0.04 0.04 0.06 0.09 0.10 0.13 0.17 0.19 0.22 0.29 0.39 0.48 0.60 0.68 0.69 0.69 0.69 0.73 0.76 0.73 0.70 0.67 0.63 0.61 0.61 0.67 0.69 0.66 0.61 0.56 0.52 0.51 0.50 0.48 0.42 0.36
0.23 0.28 0.21 0.10 0.08 0.11 0.22 0.18 0.03 0.01 0.02 0.04 0.05 0.05 0.04 0.05 0.07 0.08 0.10 0.15 0.19 0.26 0.32 0.42 0.51 0.62 0.71 0.75 0.77 0.74 0.74 0.77 0.80 0.76 0.75 0.71 0.67 0.66 0.69 0.72 0.70 0.65 0.62 0.59 0.55 0.52 0.50 0.46 0.42
0.36 0.30 0.18 0.09 0.07 0.11 0.21 0.16 0.04 0.01 0.02 0.03 0.04 0.05 0.05 0.05 0.06 0.08 0.10 0.12 0.18 0.24 0.30 0.43 0.54 0.57 0.63 0.77 0.83 0.82 0.81 0.83 0.84 0.83 0.79 0.76 0.71 0.69 0.72 0.75 0.75 0.74 0.73 0.68 0.64 0.58 0.51 0.46 0.43
0.30 0.22 0.14 0.11 0.10 0.14 0.16 0.10 0.03 0.02 0.04 0.03 0.03 0.04 0.05 0.05 0.04 0.06 0.11 0.14 0.18 0.24 0.31 0.40 0.55 0.59 0.63 0.76 0.92 0.94 0.91 0.91 0.90 0.84 0.78 0.77 0.76 0.71 0.69 0.72 0.75 0.78 0.76 0.71 0.66 0.62 0.54 0.48 0.45
0.18 0.21 0.18 0.12 0.10 0.18 0.17 0.10 0.04 0.02 0.04 0.04 0.03 0.03 0.04 0.04 0.04 0.05 0.10 0.16 0.21 0.24 0.29 0.38 0.55 0.60 0.69 0.77 0.86 0.92 0.86 0.87 0.88 0.83 0.80 0.76 0.78 0.80 0.76 0.73 0.73 0.76 0.76 0.69 0.62 0.61 0.61 0.58 0.55
0.23 0.26 0.20 0.14 0.12 0.19 0.18 0.10 0.04 0.02 0.03 0.03 0.03 0.03 0.04 0.04 0.04 0.05 0.08 0.13 0.19 0.23 0.25 0.31 0.47 0.58 0.64 0.69 0.72 0.76 0.78 0.81 0.84 0.80 0.83 0.83 0.80 0.85 0.82 0.75 0.74 0.74 0.74 0.71 0.64 0.61 0.61 0.60 0.60
0.22 0.20 0.17 0.16 0.17 0.20 0.20 0.13 0.04 0.02 0.02 0.03 0.04 0.05 0.05 0.04 0.04 0.05 0.06 0.09 0.15 0.21 0.22 0.27 0.39 0.53 0.61 0.68 0.82 0.87 0.93 1.01 1.00 0.92 0.84 0.82 0.84 0.84 0.88 0.82 0.75 0.75 0.76 0.73 0.66 0.60 0.59 0.60 0.56
0.23 0.11 0.12 0.18 0.30 0.31 0.22 0.24 0.07 0.03 0.04 0.04 0.04 0.04 0.04 0.04 0.04 0.05 0.05 0.07 0.12 0.17 0.20 0.26 0.39 0.53 0.60 0.69 0.80 0.86 0.86 0.90 0.91 0.84 0.80 0.76 0.78 0.83 0.82 0.85 0.83 0.78 0.76 0.73 0.69 0.64 0.60 0.63 0.63
0.20 0.10 0.13 0.20 0.33 0.39 0.25 0.30 0.11 0.05 0.06 0.07 0.08 0.07 0.06 0.05 0.04 0.04 0.05 0.06 0.10 0.17 0.22 0.26 0.36 0.53 0.64 0.71 0.74 0.79 0.78 0.74 0.79 0.89 0.89 0.85 0.82 0.82 0.82 0.81 0.84 0.83 0.77 0.73 0.72 0.73 0.71 0.70 0.69
0.25 0.24 0.28 0.32 0.55 0.71 0.25 0.23 0.13 0.10 0.11 0.10 0.09 0.09 0.09 0.08 0.06 0.05 0.05 0.06 0.09 0.19 0.26 0.32 0.36 0.47 0.64 0.76 0.78 0.76 0.76 0.75 0.80 0.89 0.94 0.95 0.91 0.85 0.81 0.80 0.79 0.80 0.78 0.71 0.68 0.71 0.75 0.75 0.71
0.48 0.70 1.08 1.08 1.05 0.59 0.10 0.15 0.16 0.09 0.08 0.09 0.10 0.09 0.08 0.09 0.09 0.08 0.08 0.09 0.10 0.17 0.26 0.33 0.39 0.42 0.54 0.73 0.80 0.77 0.76 0.74 0.73 0.79 0.86 0.89 0.93 0.92 0.84 0.80 0.77 0.76 0.76 0.75 0.72 0.73 0.72 0.73 0.76
0.55 0.73 0.95 0.82 0.47 0.15 0.05 0.10 0.12 0.06 0.05 0.05 0.07 0.08 0.06 0.06 0.07 0.09 0.10 0.12 0.13 0.16 0.24 0.33 0.42 0.45 0.50 0.62 0.75 0.79 0.82 0.80 0.75 0.75 0.81 0.84 0.84 0.85 0.86 0.86 0.81 0.73 0.71 0.74 0.79 0.78 0.75 0.75 0.77
0.42 0.54 0.49 0.62 0.41 0.22 0.11 0.07 0.08 0.04 0.03 0.03 0.03 0.06 0.09 0.08 0.09 0.11 0.12 0.14 0.15 0.17 0.23 0.29 0.38 0.50 0.53 0.55 0.69 0.79 0.85 0.86 0.78 0.74 0.77 0.82 0.83 0.85 0.92 0.92 0.91 0.85 0.79 0.75 0.77 0.79 0.78 0.82 0.81
0.34 0.39 0.60 0.96 0.82 0.36 0.13 0.08 0.11 0.08 0.05 0.04 0.03 0.04 0.07 0.09 0.09 0.11 0.15 0.16 0.15 0.17 0.22 0.27 0.31 0.43 0.58 0.58 0.64 0.79 0.85 0.89 0.88 0.82 0.78 0.76 0.77 0.83 0.95 0.99 0.94 0.94 0.91 0.86 0.81 0.79 0.77 0.83 0.85
0.40 0.52 0.73 0.88 0.73 0.48 0.23 0.14 0.15 0.09 0.06 0.06 0.05 0.05 0.06 0.07 0.09 0.11 0.16 0.18 0.17 0.16 0.21 0.29 0.33 0.41 0.55 0.65 0.65 0.71 0.82 0.87 0.93 0.92 0.84 0.78 0.77 0.78 0.87 0.98 1.00 0.99 0.98 0.95 0.93 0.89 0.88 0.88 0.88
0.39 0.47 0.59 0.85 0.70 0.42 0.33 0.17 0.10 0.08 0.06 0.06 0.07 0.05 0.05 0.07 0.09 0.12 0.20 0.21 0.20 0.20 0.23 0.30 0.30 0.35 0.46 0.62 0.72 0.70 0.75 0.87 0.90 0.84 0.81 0.84 0.81 0.80 0.83 0.92 1.05 1.08 1.06 1.02 1.01 0.99 1.03 1.09 1.05